Regional Weather Roundup
Issued by NWS

Home | Current Version | Previous Version | Text Only | Print | Product List | Glossary On
Versions: 1 2 3 4 5 6 7 8 9 10 11 12 13 14 15 16 17 18 19 20 21 22 23 24 25 26 27 28 29 30 31 32 33 34 35 36 37 38 39 40 41 42 43 44 45 46 47 48 49 50
000
ASUS44 KOUN 050510
RWROK

WEATHER ROUNDUP FOR OKLAHOMA
NATIONAL WEATHER SERVICE NORMAN OK
1200 AM CDT WED AUG 05 2015

NOTE: "FAIR" INDICATES FEW OR NO CLOUDS BELOW 12,000 FEET WITH NO
      SIGNIFICANT WEATHER AND/OR OBSTRUCTIONS TO VISIBILITY.

OKZ001>007-009>012-014-015-017-050600-
NORTHWEST OKLAHOMA AND THE PANHANDLE

CITY           SKY/WX    TMP DP  RH WIND       PRES   REMARKS
GUYMON         CLEAR     77  67  71 S9        29.95S
ENID/WOODRING  PTCLDY    77  70  78 SE9       29.90F
$$

OKZ016-021>023-033>039-044-045-050600-
SOUTHWEST OKLAHOMA

CITY           SKY/WX    TMP DP  RH WIND       PRES   REMARKS
LAWTON/REGL    CLEAR     78  71  79 SE3       29.92S
LAWTON/FT SILL CLEAR     78  72  81 SE7       29.91F
FREDERICK      CLEAR     78  73  84 SE8       29.89S
CLINTON        CLEAR     81  69  67 SE10      29.97S
HOBART         CLEAR     80  69  69 S9        29.94S
ALTUS AFB      CLEAR     78  71  78 E9        29.92S
$$

OKZ018>020-024>031-050600-
CENTRAL OKLAHOMA

CITY           SKY/WX    TMP DP  RH WIND       PRES   REMARKS
OKLAHOMA CITY  PTCLDY    76  72  87 SE9       29.94F
OKC/WILEY POST CLEAR     81  71  71 SE14      29.93F
OKC/TINKER AFB CLEAR     75  71  89 SE7       29.94F
GUTHRIE        CLEAR     78  71  79 SE10      29.92F
$$

OKZ008-013-054>072-050600-
NORTHEAST OKLAHOMA

CITY           SKY/WX    TMP DP  RH WIND       PRES   REMARKS
TULSA          CLOUDY    79  73  82 E3        29.93F
TULSA/JONES    MOCLDY    76  73  91 CALM      29.94F
MUSKOGEE       CLOUDY    78  74  87 S5        29.95F
$$

OKZ032-040>043-046>053-073>077-050600-
SOUTH CENTRAL/SOUTHEAST OKLAHOMA

CITY           SKY/WX    TMP DP  RH WIND       PRES   REMARKS
ARDMORE/DWNTWN CLEAR     77  68  73 CALM      29.93S
MCALESTER      PTCLDY    80  69  69 SE6       29.95F
$$




USA.gov is the U.S. government's official web portal to all federal, state and local government web resources and services.